Location: Olsztyn
(53.7767°N, 20.4765°E)
Time: 15:22:28
(UTC+02:00)

A-11 Canister half - Pass Details

Date: 23 January 2022
Orbit: 1513 x 1686 km, 47.2° (Epoch: 25 May)

Event Time Altitude Azimuth Distance (km) Brightness Sun altitude
Rises 23:11:16 0° 284° (WNW) 4,667 11.8 -54.7°
Enters shadow 23:13:24 - 278° (W) 4,056 11.3 -54.8°
Reaches altitude 10° 23:14:49 10° 273° (W) 3,677 - -54.8°
Maximum altitude 23:22:10 28° 219° (SW) 2,550 - -55.1°
Drops below altitude 10° 23:29:34 10° 166° (SSE) 3,695 - -55.3°
Sets 23:33:11 0° 155° (SSE) 4,694 - -55.3°
